This is the latest recevied weather packets stored in our database for station/object K0QED. If no packets are shown the sender has not sent any weather packets the latest 10 day(s).
| Time | Temp. | Humidity | Pressure | Rain* | Wind** | Luminosity | Snow |
|---|---|---|---|---|---|---|---|
| 1777046733 | 11.67° C | 24% | 1014.2 hPa | 0 mm | - | 659 W/m² | - |
| 1777046428 | 10.56° C | 25% | 1014.5 hPa | 0 mm | - | 269 W/m² | - |
| 1777046124 | 10.56° C | 25% | 1014.5 hPa | 0 mm | - | 272 W/m² | - |
| 1777045821 | 10.56° C | 26% | 1014.5 hPa | 0 mm | - | 134 W/m² | - |
| 1777045517 | 10° C | 25% | 1014.5 hPa | 0 mm | - | 42 W/m² | - |
| 1777045212 | 10.56° C | 24% | 1014.4 hPa | 0 mm | - | 36 W/m² | - |
| 1777044909 | 10° C | 24% | 1014.4 hPa | 0 mm | - | 35 W/m² | - |
| 1777044604 | 10.56° C | 23% | 1014.6 hPa | 0 mm | - | 34 W/m² | - |
| 1777044301 | 10° C | 25% | 1014.1 hPa | 0 mm | - | 35 W/m² | - |
| 1777043995 | 10° C | 26% | 1014.7 hPa | 0 mm | - | 34 W/m² | - |
| 1777043692 | 10° C | 28% | 1014.5 hPa | 0 mm | - | 47 W/m² | - |
| 1777043390 | 10° C | 29% | 1014.6 hPa | 0 mm | - | 77 W/m² | - |
| 1777043085 | 10° C | 24% | 1014.6 hPa | 0 mm | - | 78 W/m² | - |
| 1777042780 | 9.44° C | 21% | 1014.6 hPa | 0 mm | - | 189 W/m² | - |
| 1777042476 | 8.89° C | 23% | 1015.1 hPa | 0 mm | - | 170 W/m² | - |
| 1777042172 | 8.33° C | 23% | 1014.7 hPa | 0 mm | - | 48 W/m² | - |
| 1777041868 | 8.33° C | 23% | 1014.9 hPa | 0 mm | - | 37 W/m² | - |
| 1777041566 | 8.33° C | 24% | 1015.1 hPa | 0 mm | - | 29 W/m² | - |
| 1777041261 | 7.78° C | 25% | 1014.7 hPa | 0 mm | - | 28 W/m² | - |
| 1777040958 | 7.78° C | 24% | 1015.1 hPa | 0 mm | - | 29 W/m² | - |
| 1777040654 | 7.78° C | 25% | 1015.1 hPa | 0 mm | - | 27 W/m² | - |
| 1777040348 | 7.78° C | 25% | 1015 hPa | 0 mm | - | 27 W/m² | - |
| 1777040043 | 7.22° C | 25% | 1015 hPa | 0 mm | - | 28 W/m² | - |
| 1777039740 | 6.67° C | 27% | 1015.1 hPa | 0 mm | - | 69 W/m² | - |
| 1777039435 | 6.67° C | 32% | 1015.2 hPa | 0 mm | - | 41 W/m² | - |
* Rain latest hour (hover to see other rain measurements)
** Current wind speed in m/s (hover to see current wind gust speed)